Time,TemperatureF,DewpointF,PressureIn,WindDirection,WindDirectionDegrees,WindSpeedMPH,WindSpeedGustMPH,Humidity,HourlyPrecipIn,Conditions,Clouds,dailyrainin,SoftwareType,DateUTC
2013-09-11 00:00:00,72.7,65.8,29.97,WSW,247,0.0,0.0,79,0.00,,,-99.99,open2300 version1.11,2013-09-11 04:00:00,
2013-09-11 00:05:00,72.7,65.8,29.97,WSW,247,0.0,0.0,79,0.00,,,-99.99,open2300 version1.11,2013-09-11 04:05:00,
2013-09-11 00:10:00,72.7,65.8,29.97,WSW,247,0.0,0.0,79,0.00,,,-99.99,open2300 version1.11,2013-09-11 04:10:00,
2013-09-11 00:15:00,72.5,65.6,29.97,WSW,247,0.0,0.0,79,0.00,,,-99.99,open2300 version1.11,2013-09-11 04:15:00,
2013-09-11 00:20:00,72.7,65.8,29.97,WSW,247,0.0,0.0,79,0.00,,,-99.99,open2300 version1.11,2013-09-11 04:20:00,
2013-09-11 00:25:00,72.7,65.8,29.97,WSW,247,0.0,0.0,79,0.00,,,-99.99,open2300 version1.11,2013-09-11 04:25:00,
2013-09-11 00:30:00,72.7,65.8,29.97,WSW,247,0.0,0.0,79,0.00,,,-99.99,open2300 version1.11,2013-09-11 04:30:00,
2013-09-11 00:35:00,73.0,66.6,29.98,WSW,247,0.0,0.0,80,0.00,,,-99.99,open2300 version1.11,2013-09-11 04:35:00,
2013-09-11 00:40:00,73.2,66.4,29.98,WSW,247,0.0,0.0,79,0.00,,,-99.99,open2300 version1.11,2013-09-11 04:40:00,
2013-09-11 00:45:00,73.2,66.4,29.98,WSW,247,0.0,0.0,79,0.00,,,-99.99,open2300 version1.11,2013-09-11 04:45:00,
2013-09-11 00:50:00,73.2,66.4,29.98,WSW,247,0.0,0.0,79,0.00,,,-99.99,open2300 version1.11,2013-09-11 04:50:00,
2013-09-11 00:55:00,73.6,66.3,29.97,WSW,247,0.0,0.0,78,0.00,,,-99.99,open2300 version1.11,2013-09-11 04:55:00,
2013-09-11 01:10:00,73.6,66.3,29.97,WSW,247,0.0,0.0,78,0.00,,,-99.99,open2300 version1.11,2013-09-11 05:10:00,
2013-09-11 01:15:00,73.8,66.1,29.97,WSW,247,0.0,0.2,77,0.00,,,-99.99,open2300 version1.11,2013-09-11 05:15:00,
2013-09-11 01:20:00,73.6,66.0,29.97,WSW,247,0.0,0.0,77,0.00,,,-99.99,open2300 version1.11,2013-09-11 05:20:00,
2013-09-11 01:25:00,73.6,66.0,29.97,WSW,247,0.0,0.0,77,0.00,,,-99.99,open2300 version1.11,2013-09-11 05:25:00,
2013-09-11 01:30:00,73.6,66.0,29.97,WSW,247,0.0,0.0,77,0.00,,,-99.99,open2300 version1.11,2013-09-11 05:30:00,
2013-09-11 01:35:00,73.6,66.0,29.97,WSW,247,0.0,0.0,77,0.00,,,-99.99,open2300 version1.11,2013-09-11 05:35:00,
2013-09-11 01:40:00,73.6,66.0,29.97,WSW,247,0.0,1.1,77,0.00,,,-99.99,open2300 version1.11,2013-09-11 05:40:00,
2013-09-11 01:45:00,73.8,66.1,29.97,WSW,247,0.0,1.1,77,0.00,,,-99.99,open2300 version1.11,2013-09-11 05:45:00,
2013-09-11 01:50:00,73.8,66.1,29.97,WSW,247,0.0,0.9,77,0.00,,,-99.99,open2300 version1.11,2013-09-11 05:50:00,
2013-09-11 01:55:00,73.8,66.1,29.97,SE,135,0.1,1.3,77,0.00,,,-99.99,open2300 version1.11,2013-09-11 05:55:00,
2013-09-11 02:10:00,73.8,66.1,29.97,SSW,198,0.1,1.8,77,0.00,,,-99.99,open2300 version1.11,2013-09-11 06:10:00,
2013-09-11 02:15:00,73.9,65.9,29.97,SW,225,0.6,2.7,76,0.00,,,-99.99,open2300 version1.11,2013-09-11 06:15:00,
2013-09-11 02:20:00,73.9,65.9,29.98,SW,225,0.2,1.1,76,0.00,,,-99.99,open2300 version1.11,2013-09-11 06:20:00,
2013-09-11 02:25:00,73.9,65.9,29.97,SW,225,0.4,1.6,76,0.00,,,-99.99,open2300 version1.11,2013-09-11 06:25:00,
2013-09-11 02:30:00,74.1,66.1,29.97,SW,225,0.3,1.6,76,0.00,,,-99.99,open2300 version1.11,2013-09-11 06:30:00,
2013-09-11 02:35:00,74.1,66.1,29.97,SW,225,0.4,2.5,76,0.00,,,-99.99,open2300 version1.11,2013-09-11 06:35:00,
2013-09-11 02:40:00,74.1,66.1,29.97,WSW,252,0.4,1.6,76,0.00,,,-99.99,open2300 version1.11,2013-09-11 06:40:00,
2013-09-11 02:45:00,74.1,66.1,29.97,WSW,247,0.4,1.6,76,0.00,,,-99.99,open2300 version1.11,2013-09-11 06:45:00,
2013-09-11 02:50:00,74.1,65.7,29.97,WSW,247,0.6,2.5,75,0.00,,,-99.99,open2300 version1.11,2013-09-11 06:50:00,
2013-09-11 02:55:00,74.3,65.9,29.97,WSW,246,0.8,4.2,75,0.00,,,-99.99,open2300 version1.11,2013-09-11 06:55:00,
2013-09-11 03:00:00,74.3,65.9,29.97,WSW,239,0.6,2.9,75,0.00,,,-99.99,open2300 version1.11,2013-09-11 07:00:00,
2013-09-11 03:05:00,74.5,66.1,29.98,SW,231,0.5,2.0,75,0.00,,,-99.99,open2300 version1.11,2013-09-11 07:05:00,
2013-09-11 03:10:00,74.5,66.1,29.98,WSW,247,0.3,1.8,75,0.00,,,-99.99,open2300 version1.11,2013-09-11 07:10:00,
2013-09-11 03:15:00,74.5,66.1,29.98,WSW,247,0.2,1.3,75,0.00,,,-99.99,open2300 version1.11,2013-09-11 07:15:00,
2013-09-11 03:20:00,74.5,66.1,29.98,WSW,247,0.4,1.6,75,0.00,,,-99.99,open2300 version1.11,2013-09-11 07:20:00,
2013-09-11 03:25:00,74.5,66.1,29.98,WSW,243,0.3,2.5,75,0.00,,,-99.99,open2300 version1.11,2013-09-11 07:25:00,
2013-09-11 03:30:00,74.5,66.1,29.98,SW,225,0.2,1.6,75,0.00,,,-99.99,open2300 version1.11,2013-09-11 07:30:00,
2013-09-11 03:35:00,74.3,65.9,29.98,SW,225,0.1,1.8,75,0.00,,,-99.99,open2300 version1.11,2013-09-11 07:35:00,
2013-09-11 03:40:00,74.3,65.9,29.98,SW,225,0.1,0.9,75,0.00,,,-99.99,open2300 version1.11,2013-09-11 07:40:00,
2013-09-11 03:45:00,74.1,65.7,29.98,SW,225,0.1,1.1,75,0.00,,,-99.99,open2300 version1.11,2013-09-11 07:45:00,
2013-09-11 03:50:00,74.1,65.7,29.98,SW,225,0.1,0.9,75,0.00,,,-99.99,open2300 version1.11,2013-09-11 07:50:00,
2013-09-11 03:55:00,73.9,65.5,29.98,SW,225,0.0,0.7,75,0.00,,,-99.99,open2300 version1.11,2013-09-11 07:55:00,
2013-09-11 04:00:00,73.9,65.5,29.98,SW,225,0.1,1.1,75,0.00,,,-99.99,open2300 version1.11,2013-09-11 08:00:00,
2013-09-11 04:05:00,73.9,65.5,29.98,SW,225,0.1,1.1,75,0.00,,,-99.99,open2300 version1.11,2013-09-11 08:05:00,
2013-09-11 04:10:00,73.8,65.8,29.98,SW,225,0.1,0.9,76,0.00,,,-99.99,open2300 version1.11,2013-09-11 08:10:00,
2013-09-11 04:15:00,73.8,65.8,29.98,SW,225,0.0,0.0,76,0.00,,,-99.99,open2300 version1.11,2013-09-11 08:15:00,
2013-09-11 04:20:00,73.6,65.6,29.98,SW,225,0.0,0.9,76,0.00,,,-99.99,open2300 version1.11,2013-09-11 08:20:00,
2013-09-11 04:25:00,73.6,65.6,29.98,SW,225,0.0,0.7,76,0.00,,,-99.99,open2300 version1.11,2013-09-11 08:25:00,
2013-09-11 04:30:00,73.2,65.2,29.97,SW,225,0.0,0.9,76,0.00,,,-99.99,open2300 version1.11,2013-09-11 08:30:00,
2013-09-11 04:35:00,73.2,65.6,29.98,SW,225,0.3,3.1,77,0.00,,,-99.99,open2300 version1.11,2013-09-11 08:35:00,
2013-09-11 04:40:00,73.0,65.4,29.97,SW,225,0.3,1.8,77,0.00,,,-99.99,open2300 version1.11,2013-09-11 08:40:00,
2013-09-11 04:45:00,72.9,65.2,29.97,SW,225,0.5,2.0,77,0.00,,,-99.99,open2300 version1.11,2013-09-11 08:45:00,
2013-09-11 04:50:00,72.9,65.2,29.97,SW,225,0.3,1.6,77,0.00,,,-99.99,open2300 version1.11,2013-09-11 08:50:00,
2013-09-11 04:55:00,72.9,65.2,29.98,SW,225,0.3,1.6,77,0.00,,,-99.99,open2300 version1.11,2013-09-11 08:55:00,
2013-09-11 05:00:00,72.9,65.2,29.98,SW,225,0.4,1.8,77,0.00,,,-99.99,open2300 version1.11,2013-09-11 09:00:00,
2013-09-11 05:05:00,72.9,65.2,29.97,SW,225,0.3,1.3,77,0.00,,,-99.99,open2300 version1.11,2013-09-11 09:05:00,
2013-09-11 05:10:00,72.9,65.6,29.97,SW,225,0.5,2.7,78,0.00,,,-99.99,open2300 version1.11,2013-09-11 09:10:00,
2013-09-11 05:15:00,73.0,65.8,29.97,SW,225,0.5,1.8,78,0.00,,,-99.99,open2300 version1.11,2013-09-11 09:15:00,
2013-09-11 05:20:00,73.0,65.8,29.97,SW,225,0.5,2.5,78,0.00,,,-99.99,open2300 version1.11,2013-09-11 09:20:00,
2013-09-11 05:25:00,73.0,65.8,29.97,SW,225,0.5,2.2,78,0.00,,,-99.99,open2300 version1.11,2013-09-11 09:25:00,
2013-09-11 05:30:00,73.0,65.8,29.97,SW,225,0.2,1.3,78,0.00,,,-99.99,open2300 version1.11,2013-09-11 09:30:00,
2013-09-11 05:35:00,73.0,65.8,29.97,SW,225,0.1,0.9,78,0.00,,,-99.99,open2300 version1.11,2013-09-11 09:35:00,
2013-09-11 05:40:00,73.0,65.8,29.97,SW,225,0.2,1.3,78,0.00,,,-99.99,open2300 version1.11,2013-09-11 09:40:00,
2013-09-11 05:45:00,73.0,65.8,29.97,SW,225,0.2,1.3,78,0.00,,,-99.99,open2300 version1.11,2013-09-11 09:45:00,
2013-09-11 05:50:00,73.0,65.8,29.98,SW,225,0.1,0.9,78,0.00,,,-99.99,open2300 version1.11,2013-09-11 09:50:00,
2013-09-11 05:55:00,73.0,65.8,29.98,SW,225,0.1,1.1,78,0.00,,,-99.99,open2300 version1.11,2013-09-11 09:55:00,
2013-09-11 06:00:00,72.9,65.6,29.98,SW,225,0.3,1.8,78,0.00,,,-99.99,open2300 version1.11,2013-09-11 10:00:00,
2013-09-11 06:05:00,72.7,65.8,29.98,SW,225,0.1,1.1,79,0.00,,,-99.99,open2300 version1.11,2013-09-11 10:05:00,
2013-09-11 06:10:00,72.7,65.8,29.98,SW,225,0.1,1.1,79,0.00,,,-99.99,open2300 version1.11,2013-09-11 10:10:00,
2013-09-11 06:15:00,72.7,65.8,29.98,SW,225,0.2,1.3,79,0.00,,,-99.99,open2300 version1.11,2013-09-11 10:15:00,
2013-09-11 06:20:00,72.7,65.8,29.98,SW,225,0.1,1.1,79,0.00,,,-99.99,open2300 version1.11,2013-09-11 10:20:00,
2013-09-11 06:25:00,72.7,65.8,29.97,SW,225,0.2,1.3,79,0.00,,,-99.99,open2300 version1.11,2013-09-11 10:25:00,
2013-09-11 06:30:00,72.7,65.8,29.97,SW,225,0.2,1.6,79,0.00,,,-99.99,open2300 version1.11,2013-09-11 10:30:00,
2013-09-11 06:35:00,72.5,65.6,29.98,SW,225,0.2,1.6,79,0.00,,,-99.99,open2300 version1.11,2013-09-11 10:35:00,
2013-09-11 06:40:00,72.5,65.6,29.98,SW,225,0.1,1.6,79,0.00,,,-99.99,open2300 version1.11,2013-09-11 10:40:00,
2013-09-11 06:45:00,72.5,65.6,29.98,SW,225,0.1,1.3,79,0.00,,,-99.99,open2300 version1.11,2013-09-11 10:45:00,
2013-09-11 06:50:00,72.5,65.6,29.98,SW,225,0.0,0.0,79,0.00,,,-99.99,open2300 version1.11,2013-09-11 10:50:00,
2013-09-11 06:55:00,72.5,65.6,29.98,SW,225,0.0,0.0,79,0.00,,,-99.99,open2300 version1.11,2013-09-11 10:55:00,
2013-09-11 07:00:00,72.3,65.8,29.98,SW,225,0.0,0.7,80,0.00,,,-99.99,open2300 version1.11,2013-09-11 11:00:00,
2013-09-11 07:05:00,72.3,65.8,29.98,SW,225,0.1,0.9,80,0.00,,,-99.99,open2300 version1.11,2013-09-11 11:05:00,
2013-09-11 07:10:00,72.3,65.8,29.98,SW,225,0.1,1.1,80,0.00,,,-99.99,open2300 version1.11,2013-09-11 11:10:00,
2013-09-11 07:15:00,72.1,65.7,29.98,SW,225,0.1,1.1,80,0.00,,,-99.99,open2300 version1.11,2013-09-11 11:15:00,
2013-09-11 07:20:00,72.1,65.7,29.98,SW,225,0.3,1.3,80,0.00,,,-99.99,open2300 version1.11,2013-09-11 11:20:00,
2013-09-11 07:25:00,72.1,66.0,29.98,SW,225,0.2,0.9,81,0.00,,,-99.99,open2300 version1.11,2013-09-11 11:25:00,
2013-09-11 07:30:00,72.3,66.2,29.99,SW,225,0.1,1.3,81,0.00,,,-99.99,open2300 version1.11,2013-09-11 11:30:00,
2013-09-11 07:35:00,72.3,66.2,29.98,SW,225,0.1,0.9,81,0.00,,,-99.99,open2300 version1.11,2013-09-11 11:35:00,
2013-09-11 07:40:00,72.1,66.0,29.99,SW,225,0.1,0.9,81,0.00,,,-99.99,open2300 version1.11,2013-09-11 11:40:00,
2013-09-11 07:45:00,72.3,66.2,29.99,SW,225,0.0,0.0,81,0.00,,,-99.99,open2300 version1.11,2013-09-11 11:45:00,
2013-09-11 07:50:00,72.3,66.2,29.99,SW,225,0.0,0.0,81,0.00,,,-99.99,open2300 version1.11,2013-09-11 11:50:00,
2013-09-11 07:55:00,72.3,66.5,29.99,SW,225,0.0,0.0,82,0.00,,,-99.99,open2300 version1.11,2013-09-11 11:55:00,
2013-09-11 08:00:00,72.3,66.5,29.99,SW,225,0.0,0.0,82,0.00,,,-99.99,open2300 version1.11,2013-09-11 12:00:00,
2013-09-11 08:05:00,72.5,66.7,29.99,SW,225,0.0,0.0,82,0.00,,,-99.99,open2300 version1.11,2013-09-11 12:05:00,
2013-09-11 08:10:00,72.7,66.9,29.99,SW,225,0.0,0.0,82,0.00,,,-99.99,open2300 version1.11,2013-09-11 12:10:00,
2013-09-11 08:15:00,72.9,67.1,29.99,SW,225,0.0,0.0,82,0.00,,,-99.99,open2300 version1.11,2013-09-11 12:15:00,
2013-09-11 08:20:00,72.9,67.1,30.00,SW,225,0.0,0.0,82,0.00,,,-99.99,open2300 version1.11,2013-09-11 12:20:00,
2013-09-11 08:25:00,73.0,67.2,30.00,SW,225,0.0,0.0,82,0.00,,,-99.99,open2300 version1.11,2013-09-11 12:25:00,
2013-09-11 08:30:00,73.2,67.4,30.00,SW,225,0.0,0.0,82,0.00,,,-99.99,open2300 version1.11,2013-09-11 12:30:00,
2013-09-11 08:35:00,73.2,67.4,30.00,SW,225,0.0,0.0,82,0.00,,,-99.99,open2300 version1.11,2013-09-11 12:35:00,
2013-09-11 08:40:00,73.6,67.8,30.00,SW,225,0.0,0.0,82,0.00,,,-99.99,open2300 version1.11,2013-09-11 12:40:00,
2013-09-11 08:45:00,73.8,67.6,30.00,SW,225,0.0,0.0,81,0.00,,,-99.99,open2300 version1.11,2013-09-11 12:45:00,
2013-09-11 08:50:00,73.9,67.8,30.00,SW,225,0.1,1.3,81,0.00,,,-99.99,open2300 version1.11,2013-09-11 12:50:00,
2013-09-11 08:55:00,74.3,68.2,30.00,SW,225,0.0,0.0,81,0.00,,,-99.99,open2300 version1.11,2013-09-11 12:55:00,
2013-09-11 09:00:00,74.5,68.3,30.00,SW,225,0.0,0.9,81,0.00,,,-99.99,open2300 version1.11,2013-09-11 13:00:00,
2013-09-11 09:05:00,74.8,68.7,30.00,SW,225,0.1,1.1,81,0.00,,,-99.99,open2300 version1.11,2013-09-11 13:05:00,
2013-09-11 09:10:00,75.0,68.9,30.00,SW,225,0.4,1.6,81,0.00,,,-99.99,open2300 version1.11,2013-09-11 13:10:00,
2013-09-11 09:15:00,75.2,69.1,30.00,SW,225,0.5,2.5,81,0.00,,,-99.99,open2300 version1.11,2013-09-11 13:15:00,
2013-09-11 09:20:00,75.6,69.0,30.00,SW,225,0.3,2.2,80,0.00,,,-99.99,open2300 version1.11,2013-09-11 13:20:00,
2013-09-11 09:25:00,75.7,69.2,30.00,SW,225,0.5,4.0,80,0.00,,,-99.99,open2300 version1.11,2013-09-11 13:25:00,
2013-09-11 09:30:00,75.9,69.4,30.00,SW,225,0.3,1.8,80,0.00,,,-99.99,open2300 version1.11,2013-09-11 13:30:00,
2013-09-11 09:35:00,76.3,69.3,30.00,SW,225,0.6,2.0,79,0.00,,,-99.99,open2300 version1.11,2013-09-11 13:35:00,
2013-09-11 09:40:00,76.6,69.6,30.00,SW,225,0.5,2.0,79,0.00,,,-99.99,open2300 version1.11,2013-09-11 13:40:00,
2013-09-11 09:45:00,76.8,69.8,30.00,SW,225,1.1,3.6,79,0.00,,,-99.99,open2300 version1.11,2013-09-11 13:45:00,
2013-09-11 09:50:00,77.2,69.8,29.99,SW,230,0.8,3.6,78,0.00,,,-99.99,open2300 version1.11,2013-09-11 13:50:00,
2013-09-11 09:55:00,77.5,70.1,30.00,WSW,247,0.8,2.7,78,0.00,,,-99.99,open2300 version1.11,2013-09-11 13:55:00,
2013-09-11 10:00:00,77.7,70.3,30.00,WSW,247,0.8,3.1,78,0.00,,,-99.99,open2300 version1.11,2013-09-11 14:00:00,
2013-09-11 10:05:00,78.1,70.6,30.00,WSW,246,1.6,5.1,78,0.00,,,-99.99,open2300 version1.11,2013-09-11 14:05:00,
2013-09-11 10:10:00,78.3,70.4,29.99,WSW,247,0.8,3.1,77,0.00,,,-99.99,open2300 version1.11,2013-09-11 14:10:00,
2013-09-11 10:15:00,78.4,70.6,30.00,WSW,255,0.8,3.4,77,0.00,,,-99.99,open2300 version1.11,2013-09-11 14:15:00,
2013-09-11 10:20:00,78.6,70.8,30.00,WSW,247,0.4,2.0,77,0.00,,,-99.99,open2300 version1.11,2013-09-11 14:20:00,
2013-09-11 10:25:00,79.2,70.9,29.99,WSW,247,0.8,2.7,76,0.00,,,-99.99,open2300 version1.11,2013-09-11 14:25:00,
2013-09-11 10:30:00,79.3,71.1,29.99,WSW,247,1.1,5.6,76,0.00,,,-99.99,open2300 version1.11,2013-09-11 14:30:00,
2013-09-11 10:35:00,79.5,70.9,30.00,WSW,247,1.3,3.8,75,0.00,,,-99.99,open2300 version1.11,2013-09-11 14:35:00,
2013-09-11 10:40:00,79.7,71.1,29.99,WSW,247,0.5,1.8,75,0.00,,,-99.99,open2300 version1.11,2013-09-11 14:40:00,
2013-09-11 10:45:00,79.9,71.2,29.99,WSW,247,0.2,1.6,75,0.00,,,-99.99,open2300 version1.11,2013-09-11 14:45:00,
2013-09-11 10:50:00,80.4,71.8,29.99,WSW,247,1.4,4.5,75,0.00,,,-99.99,open2300 version1.11,2013-09-11 14:50:00,
2013-09-11 10:55:00,80.4,71.4,29.99,WSW,247,1.5,4.0,74,0.00,,,-99.99,open2300 version1.11,2013-09-11 14:55:00,
2013-09-11 11:00:00,80.6,71.6,29.99,WSW,247,1.0,3.4,74,0.00,,,-99.99,open2300 version1.11,2013-09-11 15:00:00,
2013-09-11 11:05:00,80.8,71.3,29.99,WSW,247,1.2,4.5,73,0.00,,,-99.99,open2300 version1.11,2013-09-11 15:05:00,
2013-09-11 11:10:00,81.0,71.5,29.99,West,270,0.8,2.2,73,0.00,,,-99.99,open2300 version1.11,2013-09-11 15:10:00,
2013-09-11 11:15:00,81.3,71.8,29.98,WSW,257,0.8,2.9,73,0.00,,,-99.99,open2300 version1.11,2013-09-11 15:15:00,
2013-09-11 11:20:00,81.3,71.8,29.98,WSW,247,0.4,2.0,73,0.00,,,-99.99,open2300 version1.11,2013-09-11 15:20:00,
2013-09-11 11:25:00,81.5,72.0,29.98,WSW,247,0.6,2.0,73,0.00,,,-99.99,open2300 version1.11,2013-09-11 15:25:00,
2013-09-11 11:30:00,81.7,71.8,29.98,WSW,247,1.1,3.4,72,0.00,,,-99.99,open2300 version1.11,2013-09-11 15:30:00,
2013-09-11 11:35:00,81.7,71.8,29.98,WSW,247,0.6,3.6,72,0.00,,,-99.99,open2300 version1.11,2013-09-11 15:35:00,
2013-09-11 11:40:00,82.0,72.1,29.98,WSW,247,0.3,1.8,72,0.00,,,-99.99,open2300 version1.11,2013-09-11 15:40:00,
2013-09-11 11:45:00,82.2,72.2,29.98,WSW,247,0.8,2.7,72,0.00,,,-99.99,open2300 version1.11,2013-09-11 15:45:00,
2013-09-11 11:50:00,82.4,72.0,29.98,WSW,247,0.4,2.0,71,0.00,,,-99.99,open2300 version1.11,2013-09-11 15:50:00,
2013-09-11 11:55:00,82.6,72.2,29.98,WSW,247,0.8,4.5,71,0.00,,,-99.99,open2300 version1.11,2013-09-11 15:55:00,
2013-09-11 12:00:00,82.8,72.0,29.98,WSW,245,1.7,4.5,70,0.00,,,-99.99,open2300 version1.11,2013-09-11 16:00:00,
2013-09-11 12:05:00,82.9,72.5,29.97,SW,225,1.3,3.8,71,0.00,,,-99.99,open2300 version1.11,2013-09-11 16:05:00,
2013-09-11 12:10:00,83.1,72.3,29.98,SW,225,0.3,1.6,70,0.00,,,-99.99,open2300 version1.11,2013-09-11 16:10:00,
2013-09-11 12:15:00,83.5,72.7,29.98,SW,225,1.7,6.3,70,0.00,,,-99.99,open2300 version1.11,2013-09-11 16:15:00,
2013-09-11 12:20:00,83.8,72.6,29.97,SW,225,0.7,2.9,69,0.00,,,-99.99,open2300 version1.11,2013-09-11 16:20:00,
2013-09-11 12:25:00,84.0,72.8,29.97,WSW,238,1.7,6.9,69,0.00,,,-99.99,open2300 version1.11,2013-09-11 16:25:00,
2013-09-11 12:30:00,84.0,72.3,29.97,WSW,247,0.8,2.7,68,0.00,,,-99.99,open2300 version1.11,2013-09-11 16:30:00,
2013-09-11 12:35:00,84.6,72.8,29.97,WSW,247,0.7,3.1,68,0.00,,,-99.99,open2300 version1.11,2013-09-11 16:35:00,
2013-09-11 12:40:00,84.7,72.6,29.97,WSW,247,0.8,2.5,67,0.00,,,-99.99,open2300 version1.11,2013-09-11 16:40:00,
2013-09-11 12:45:00,84.9,72.7,29.98,WSW,247,2.3,5.6,67,0.00,,,-99.99,open2300 version1.11,2013-09-11 16:45:00,
2013-09-11 12:50:00,85.3,73.1,29.98,WSW,247,1.8,4.2,67,0.00,,,-99.99,open2300 version1.11,2013-09-11 16:50:00,
2013-09-11 12:55:00,85.1,72.5,29.97,WSW,247,1.4,3.4,66,0.00,,,-99.99,open2300 version1.11,2013-09-11 16:55:00,
2013-09-11 13:00:00,85.3,72.6,29.97,WSW,247,0.7,2.7,66,0.00,,,-99.99,open2300 version1.11,2013-09-11 17:00:00,
2013-09-11 13:05:00,84.9,72.3,29.98,WSW,247,0.8,2.7,66,0.00,,,-99.99,open2300 version1.11,2013-09-11 17:05:00,
2013-09-11 13:10:00,85.1,72.9,29.98,WSW,237,1.6,5.1,67,0.00,,,-99.99,open2300 version1.11,2013-09-11 17:10:00,
2013-09-11 13:15:00,85.6,73.4,29.97,WSW,247,1.3,3.1,67,0.00,,,-99.99,open2300 version1.11,2013-09-11 17:15:00,
2013-09-11 13:20:00,85.8,73.2,29.97,WSW,253,2.7,6.3,66,0.00,,,-99.99,open2300 version1.11,2013-09-11 17:20:00,
2013-09-11 13:25:00,86.0,72.9,29.97,WSW,248,3.1,6.7,65,0.00,,,-99.99,open2300 version1.11,2013-09-11 17:25:00,
2013-09-11 13:30:00,86.2,72.5,29.97,WSW,255,1.9,5.1,64,0.00,,,-99.99,open2300 version1.11,2013-09-11 17:30:00,
2013-09-11 13:35:00,86.2,73.0,29.97,WSW,247,1.8,5.8,65,0.00,,,-99.99,open2300 version1.11,2013-09-11 17:35:00,
2013-09-11 13:40:00,86.5,72.9,29.97,SW,229,0.8,2.5,64,0.00,,,-99.99,open2300 version1.11,2013-09-11 17:40:00,
2013-09-11 13:45:00,86.7,73.5,29.96,SW,225,0.5,2.2,65,0.00,,,-99.99,open2300 version1.11,2013-09-11 17:45:00,
2013-09-11 13:50:00,87.1,73.4,29.96,WSW,241,2.2,5.8,64,0.00,,,-99.99,open2300 version1.11,2013-09-11 17:50:00,
2013-09-11 13:55:00,87.4,73.3,29.97,WSW,254,1.4,4.0,63,0.00,,,-99.99,open2300 version1.11,2013-09-11 17:55:00,
2013-09-11 14:00:00,87.4,73.3,29.96,WSW,247,0.4,1.6,63,0.00,,,-99.99,open2300 version1.11,2013-09-11 18:00:00,
2013-09-11 14:05:00,87.4,72.9,29.96,SW,234,1.3,4.7,62,0.00,,,-99.99,open2300 version1.11,2013-09-11 18:05:00,
2013-09-11 14:10:00,87.6,73.0,29.96,SW,225,0.6,1.8,62,0.00,,,-99.99,open2300 version1.11,2013-09-11 18:10:00,
2013-09-11 14:15:00,87.6,73.0,29.96,SW,225,1.1,4.2,62,0.00,,,-99.99,open2300 version1.11,2013-09-11 18:15:00,
2013-09-11 14:20:00,87.8,72.8,29.95,SW,225,0.6,2.0,61,0.00,,,-99.99,open2300 version1.11,2013-09-11 18:20:00,
2013-09-11 14:25:00,88.0,73.4,29.95,SW,225,0.2,1.6,62,0.00,,,-99.99,open2300 version1.11,2013-09-11 18:25:00,
2013-09-11 14:30:00,88.0,72.9,29.95,SW,225,0.7,2.9,61,0.00,,,-99.99,open2300 version1.11,2013-09-11 18:30:00,
2013-09-11 14:35:00,88.2,73.1,29.95,SW,225,0.2,1.6,61,0.00,,,-99.99,open2300 version1.11,2013-09-11 18:35:00,
2013-09-11 14:40:00,88.0,72.9,29.95,SW,225,0.2,1.1,61,0.00,,,-99.99,open2300 version1.11,2013-09-11 18:40:00,
2013-09-11 14:45:00,88.0,72.9,29.94,SW,225,0.1,1.1,61,0.00,,,-99.99,open2300 version1.11,2013-09-11 18:45:00,
2013-09-11 14:50:00,88.0,73.4,29.94,SW,225,0.1,0.9,62,0.00,,,-99.99,open2300 version1.11,2013-09-11 18:50:00,
2013-09-11 14:55:00,87.8,73.2,29.94,SW,225,0.0,0.5,62,0.00,,,-99.99,open2300 version1.11,2013-09-11 18:55:00,
2013-09-11 15:00:00,87.6,73.0,29.95,SW,225,0.0,0.0,62,0.00,,,-99.99,open2300 version1.11,2013-09-11 19:00:00,
2013-09-11 15:05:00,87.4,72.9,29.94,SW,225,0.0,0.7,62,0.00,,,-99.99,open2300 version1.11,2013-09-11 19:05:00,
2013-09-11 15:10:00,87.1,73.0,29.94,SW,225,0.1,1.3,63,0.00,,,-99.99,open2300 version1.11,2013-09-11 19:10:00,
2013-09-11 15:15:00,87.4,73.3,29.94,SW,234,0.2,2.9,63,0.00,,,-99.99,open2300 version1.11,2013-09-11 19:15:00,
2013-09-11 15:20:00,87.6,73.0,29.94,SE,132,0.8,4.9,62,0.00,,,-99.99,open2300 version1.11,2013-09-11 19:20:00,
2013-09-11 15:25:00,88.0,73.4,29.94,SE,135,0.0,0.5,62,0.00,,,-99.99,open2300 version1.11,2013-09-11 19:25:00,
2013-09-11 15:30:00,88.0,73.4,29.94,SE,135,0.0,0.0,62,0.00,,,-99.99,open2300 version1.11,2013-09-11 19:30:00,
2013-09-11 15:35:00,87.8,73.2,29.93,SE,135,0.0,0.0,62,0.00,,,-99.99,open2300 version1.11,2013-09-11 19:35:00,
2013-09-11 15:40:00,87.6,73.0,29.94,SE,135,0.0,0.0,62,0.00,,,-99.99,open2300 version1.11,2013-09-11 19:40:00,
2013-09-11 15:45:00,87.6,73.5,29.94,SE,135,0.0,0.0,63,0.00,,,-99.99,open2300 version1.11,2013-09-11 19:45:00,
2013-09-11 15:50:00,87.6,73.5,29.94,SE,135,0.0,0.0,63,0.00,,,-99.99,open2300 version1.11,2013-09-11 19:50:00,
2013-09-11 15:55:00,87.4,73.3,29.93,SE,135,0.0,0.0,63,0.00,,,-99.99,open2300 version1.11,2013-09-11 19:55:00,
2013-09-11 16:00:00,87.4,73.3,29.93,SE,135,0.0,0.0,63,0.00,,,-99.99,open2300 version1.11,2013-09-11 20:00:00,
2013-09-11 16:05:00,87.4,73.8,29.92,SE,135,0.0,0.0,64,0.00,,,-99.99,open2300 version1.11,2013-09-11 20:05:00,
2013-09-11 16:10:00,87.3,73.6,29.93,SE,135,0.0,0.7,64,0.00,,,-99.99,open2300 version1.11,2013-09-11 20:10:00,
2013-09-11 16:15:00,87.3,73.6,29.92,SE,135,0.0,0.0,64,0.00,,,-99.99,open2300 version1.11,2013-09-11 20:15:00,
2013-09-11 16:20:00,87.4,73.8,29.92,SE,135,0.0,0.2,64,0.00,,,-99.99,open2300 version1.11,2013-09-11 20:20:00,
2013-09-11 16:25:00,87.4,73.3,29.92,SE,135,0.0,0.9,63,0.00,,,-99.99,open2300 version1.11,2013-09-11 20:25:00,
2013-09-11 16:30:00,87.4,73.3,29.92,SE,135,0.0,0.0,63,0.00,,,-99.99,open2300 version1.11,2013-09-11 20:30:00,
2013-09-11 16:35:00,87.4,73.3,29.91,SE,135,0.1,1.6,63,0.00,,,-99.99,open2300 version1.11,2013-09-11 20:35:00,
2013-09-11 16:40:00,87.4,73.3,29.91,SSE,157,0.0,0.0,63,0.00,,,-99.99,open2300 version1.11,2013-09-11 20:40:00,
2013-09-11 16:45:00,87.3,73.1,29.90,SSE,157,0.0,0.0,63,0.00,,,-99.99,open2300 version1.11,2013-09-11 20:45:00,
2013-09-11 16:50:00,87.3,73.1,29.90,SSE,157,0.0,0.0,63,0.00,,,-99.99,open2300 version1.11,2013-09-11 20:50:00,
2013-09-11 16:55:00,87.1,73.0,29.90,SSE,157,0.0,0.0,63,0.00,,,-99.99,open2300 version1.11,2013-09-11 20:55:00,
2013-09-11 17:00:00,87.1,73.4,29.89,SSE,157,0.0,0.0,64,0.00,,,-99.99,open2300 version1.11,2013-09-11 21:00:00,
2013-09-11 17:05:00,87.1,73.4,29.89,SSE,157,0.0,0.0,64,0.00,,,-99.99,open2300 version1.11,2013-09-11 21:05:00,
2013-09-11 17:10:00,87.1,73.4,29.89,SSE,157,0.0,0.0,64,0.00,,,-99.99,open2300 version1.11,2013-09-11 21:10:00,
2013-09-11 17:15:00,86.7,73.1,29.89,SSE,157,0.0,0.0,64,0.00,,,-99.99,open2300 version1.11,2013-09-11 21:15:00,
2013-09-11 17:20:00,86.5,72.9,29.89,SSE,157,0.0,0.0,64,0.00,,,-99.99,open2300 version1.11,2013-09-11 21:20:00,
2013-09-11 17:25:00,86.2,73.0,29.88,SSE,157,0.0,0.0,65,0.00,,,-99.99,open2300 version1.11,2013-09-11 21:25:00,
2013-09-11 17:30:00,85.3,73.1,29.87,SSE,157,0.0,0.0,67,0.02,,,-99.99,open2300 version1.11,2013-09-11 21:30:00,
2013-09-11 17:35:00,84.4,73.1,29.88,SSE,157,0.0,0.0,69,0.02,,,-99.99,open2300 version1.11,2013-09-11 21:35:00,
2013-09-11 17:40:00,83.5,73.1,29.89,SSE,157,0.0,0.0,71,0.02,,,-99.99,open2300 version1.11,2013-09-11 21:40:00,
2013-09-11 17:45:00,82.6,73.4,29.88,SSE,157,0.0,0.0,74,0.06,,,-99.99,open2300 version1.11,2013-09-11 21:45:00,
2013-09-11 17:50:00,81.7,73.4,29.89,SSE,157,0.2,1.3,76,0.06,,,-99.99,open2300 version1.11,2013-09-11 21:50:00,
2013-09-11 17:55:00,80.8,72.5,29.90,WSW,250,1.3,4.7,76,0.10,,,-99.99,open2300 version1.11,2013-09-11 21:55:00,
2013-09-11 18:00:00,79.9,70.8,29.92,West,260,7.2,18.8,74,0.14,,,-99.99,open2300 version1.11,2013-09-11 22:00:00,
2013-09-11 18:05:00,77.9,68.5,29.93,WSW,253,7.5,12.8,73,0.41,,,-99.99,open2300 version1.11,2013-09-11 22:05:00,
2013-09-11 18:10:00,75.6,67.1,29.93,WSW,256,6.2,12.3,75,0.67,,,-99.99,open2300 version1.11,2013-09-11 22:10:00,
2013-09-11 18:15:00,73.8,65.8,29.93,WSW,245,1.7,6.9,76,0.77,,,-99.99,open2300 version1.11,2013-09-11 22:15:00,
2013-09-11 18:20:00,72.7,65.4,29.92,West,266,1.2,6.3,78,1.06,,,-99.99,open2300 version1.11,2013-09-11 22:20:00,
2013-09-11 18:25:00,71.8,65.3,29.91,North,349,1.9,8.5,80,1.20,,,-99.99,open2300 version1.11,2013-09-11 22:25:00,
2013-09-11 18:30:00,71.4,65.3,29.92,SW,220,0.8,4.0,81,1.22,,,-99.99,open2300 version1.11,2013-09-11 22:30:00,
2013-09-11 18:35:00,71.2,65.4,29.93,SW,225,1.3,3.8,82,1.28,,,-99.99,open2300 version1.11,2013-09-11 22:35:00,
2013-09-11 18:40:00,71.1,65.6,29.96,WSW,244,5.8,11.2,83,1.33,,,-99.99,open2300 version1.11,2013-09-11 22:40:00,
2013-09-11 18:45:00,70.9,65.8,29.97,WSW,251,6.0,15.2,84,1.57,,,-99.99,open2300 version1.11,2013-09-11 22:45:00,
2013-09-11 18:50:00,70.5,65.4,29.97,WSW,250,7.1,15.2,84,1.65,,,-99.99,open2300 version1.11,2013-09-11 22:50:00,
2013-09-11 18:55:00,70.0,64.5,29.97,WSW,247,5.3,13.7,83,1.73,,,-99.99,open2300 version1.11,2013-09-11 22:55:00,
2013-09-11 19:00:00,69.6,64.2,29.95,WSW,244,2.1,7.2,83,1.53,,,-99.99,open2300 version1.11,2013-09-11 23:00:00,
2013-09-11 19:05:00,69.6,64.5,29.95,WSW,247,0.0,0.0,84,1.31,,,-99.99,open2300 version1.11,2013-09-11 23:05:00,
2013-09-11 19:10:00,69.4,64.3,29.95,WSW,247,0.0,0.0,84,1.16,,,-99.99,open2300 version1.11,2013-09-11 23:10:00,
2013-09-11 19:15:00,69.4,64.3,29.95,WSW,247,0.0,0.0,84,1.10,,,-99.99,open2300 version1.11,2013-09-11 23:15:00,
2013-09-11 19:20:00,69.4,64.7,29.95,WSW,247,0.0,0.0,85,0.69,,,-99.99,open2300 version1.11,2013-09-11 23:20:00,
2013-09-11 19:25:00,69.4,64.7,29.95,WSW,247,0.0,0.0,85,0.69,,,-99.99,open2300 version1.11,2013-09-11 23:25:00,
2013-09-11 19:30:00,69.4,64.7,29.95,WSW,247,0.0,0.0,85,0.65,,,-99.99,open2300 version1.11,2013-09-11 23:30:00,
2013-09-11 19:35:00,69.6,65.2,29.95,WSW,247,0.0,0.0,86,0.61,,,-99.99,open2300 version1.11,2013-09-11 23:35:00,
2013-09-11 19:40:00,69.6,65.2,29.94,WSW,247,0.0,0.0,86,0.31,,,-99.99,open2300 version1.11,2013-09-11 23:40:00,
2013-09-11 19:45:00,69.6,65.2,29.94,WSW,247,0.0,0.0,86,0.22,,,-99.99,open2300 version1.11,2013-09-11 23:45:00,
2013-09-11 19:50:00,69.6,65.2,29.93,WSW,247,0.0,0.0,86,0.12,,,-99.99,open2300 version1.11,2013-09-11 23:50:00,
2013-09-11 19:55:00,69.6,65.2,29.93,WSW,247,0.0,0.0,86,0.08,,,-99.99,open2300 version1.11,2013-09-11 23:55:00,
2013-09-11 20:00:00,69.6,65.2,29.92,WSW,247,0.0,0.0,86,0.00,,,-99.99,open2300 version1.11,2013-09-12 00:00:00,
2013-09-11 20:05:00,69.6,65.2,29.93,WSW,247,0.0,0.0,86,0.00,,,-99.99,open2300 version1.11,2013-09-12 00:05:00,
2013-09-11 20:10:00,69.6,65.5,29.93,WSW,247,0.0,0.0,87,0.00,,,-99.99,open2300 version1.11,2013-09-12 00:10:00,
2013-09-11 20:15:00,69.6,65.5,29.93,WSW,247,0.0,0.0,87,0.00,,,-99.99,open2300 version1.11,2013-09-12 00:15:00,
2013-09-11 20:20:00,69.6,65.5,29.94,WSW,247,0.0,0.0,87,0.00,,,-99.99,open2300 version1.11,2013-09-12 00:20:00,
2013-09-11 20:25:00,69.6,65.5,29.94,WSW,247,0.0,0.0,87,0.00,,,-99.99,open2300 version1.11,2013-09-12 00:25:00,
2013-09-11 20:30:00,69.6,65.5,29.94,WSW,247,0.0,0.0,87,0.00,,,-99.99,open2300 version1.11,2013-09-12 00:30:00,
2013-09-11 20:35:00,69.6,65.5,29.94,WSW,247,0.0,0.0,87,0.00,,,-99.99,open2300 version1.11,2013-09-12 00:35:00,
2013-09-11 20:40:00,69.6,65.5,29.94,WSW,247,0.0,0.0,87,0.00,,,-99.99,open2300 version1.11,2013-09-12 00:40:00,
2013-09-11 20:45:00,69.6,65.5,29.94,WSW,247,0.0,0.0,87,0.00,,,-99.99,open2300 version1.11,2013-09-12 00:45:00,
2013-09-11 20:50:00,69.6,65.5,29.94,WSW,247,0.0,0.0,87,0.00,,,-99.99,open2300 version1.11,2013-09-12 00:50:00,
2013-09-11 20:55:00,69.8,66.1,29.94,WSW,247,0.0,0.0,88,0.00,,,-99.99,open2300 version1.11,2013-09-12 00:55:00,
2013-09-11 21:00:00,69.8,66.1,29.94,WSW,247,0.0,0.0,88,0.00,,,-99.99,open2300 version1.11,2013-09-12 01:00:00,
2013-09-11 21:05:00,70.0,66.2,29.94,WSW,247,0.0,0.0,88,0.00,,,-99.99,open2300 version1.11,2013-09-12 01:05:00,
2013-09-11 21:10:00,70.0,66.2,29.94,WSW,247,0.0,0.0,88,0.00,,,-99.99,open2300 version1.11,2013-09-12 01:10:00,
2013-09-11 21:15:00,69.8,66.1,29.94,WSW,247,0.0,0.0,88,0.00,,,-99.99,open2300 version1.11,2013-09-12 01:15:00,
2013-09-11 21:20:00,69.8,66.1,29.94,WSW,247,0.0,0.0,88,0.00,,,-99.99,open2300 version1.11,2013-09-12 01:20:00,
2013-09-11 21:25:00,69.6,65.9,29.94,WSW,247,0.0,0.0,88,0.00,,,-99.99,open2300 version1.11,2013-09-12 01:25:00,
2013-09-11 21:30:00,69.6,65.9,29.95,WSW,247,0.0,0.0,88,0.00,,,-99.99,open2300 version1.11,2013-09-12 01:30:00,
2013-09-11 21:35:00,69.6,65.9,29.94,WSW,247,0.0,0.0,88,0.00,,,-99.99,open2300 version1.11,2013-09-12 01:35:00,
2013-09-11 21:40:00,69.6,65.9,29.94,WSW,247,0.0,0.0,88,0.00,,,-99.99,open2300 version1.11,2013-09-12 01:40:00,
2013-09-11 21:45:00,69.6,65.9,29.94,WSW,247,0.0,0.0,88,0.00,,,-99.99,open2300 version1.11,2013-09-12 01:45:00,
2013-09-11 21:50:00,69.6,65.9,29.94,WSW,247,0.0,0.0,88,0.00,,,-99.99,open2300 version1.11,2013-09-12 01:50:00,
2013-09-11 21:55:00,69.6,65.9,29.94,WSW,247,0.0,0.0,88,0.00,,,-99.99,open2300 version1.11,2013-09-12 01:55:00,
2013-09-11 22:00:00,69.6,65.9,29.94,WSW,247,0.0,0.0,88,0.00,,,-99.99,open2300 version1.11,2013-09-12 02:00:00,
2013-09-11 22:05:00,69.4,65.7,29.94,WSW,247,0.0,0.0,88,0.00,,,-99.99,open2300 version1.11,2013-09-12 02:05:00,
2013-09-11 22:10:00,69.4,65.7,29.94,WSW,247,0.0,0.0,88,0.00,,,-99.99,open2300 version1.11,2013-09-12 02:10:00,
2013-09-11 22:15:00,69.4,65.7,29.94,WSW,247,0.0,0.0,88,0.00,,,-99.99,open2300 version1.11,2013-09-12 02:15:00,
2013-09-11 22:20:00,69.4,65.7,29.94,WSW,247,0.0,0.0,88,0.00,,,-99.99,open2300 version1.11,2013-09-12 02:20:00,
2013-09-11 22:25:00,69.4,65.7,29.94,WSW,247,0.0,0.0,88,0.00,,,-99.99,open2300 version1.11,2013-09-12 02:25:00,
2013-09-11 22:30:00,69.4,65.7,29.94,WSW,247,0.0,0.0,88,0.00,,,-99.99,open2300 version1.11,2013-09-12 02:30:00,
2013-09-11 22:35:00,69.4,65.7,29.95,WSW,247,0.0,0.0,88,0.00,,,-99.99,open2300 version1.11,2013-09-12 02:35:00,
2013-09-11 22:40:00,69.4,65.7,29.95,WSW,247,0.0,0.0,88,0.00,,,-99.99,open2300 version1.11,2013-09-12 02:40:00,
2013-09-11 22:45:00,69.3,65.9,29.94,WSW,247,0.0,0.0,89,0.00,,,-99.99,open2300 version1.11,2013-09-12 02:45:00,
2013-09-11 22:50:00,69.3,65.9,29.94,WSW,247,0.0,0.0,89,0.00,,,-99.99,open2300 version1.11,2013-09-12 02:50:00,
2013-09-11 22:55:00,69.3,65.9,29.94,WSW,247,0.0,0.0,89,0.00,,,-99.99,open2300 version1.11,2013-09-12 02:55:00,
2013-09-11 23:00:00,69.1,65.7,29.94,WSW,247,0.0,0.0,89,0.00,,,-99.99,open2300 version1.11,2013-09-12 03:00:00,
2013-09-11 23:05:00,69.1,65.7,29.94,WSW,247,0.0,0.0,89,0.00,,,-99.99,open2300 version1.11,2013-09-12 03:05:00,
2013-09-11 23:10:00,69.1,65.7,29.94,WSW,247,0.0,0.0,89,0.00,,,-99.99,open2300 version1.11,2013-09-12 03:10:00,
2013-09-11 23:15:00,69.1,65.7,29.94,WSW,247,0.0,0.0,89,0.00,,,-99.99,open2300 version1.11,2013-09-12 03:15:00,
2013-09-11 23:20:00,69.1,65.7,29.94,WSW,247,0.0,0.0,89,0.00,,,-99.99,open2300 version1.11,2013-09-12 03:20:00,
2013-09-11 23:25:00,69.1,65.7,29.94,WSW,247,0.0,0.0,89,0.00,,,-99.99,open2300 version1.11,2013-09-12 03:25:00,
2013-09-11 23:30:00,68.9,65.5,29.94,WSW,247,0.0,0.0,89,0.00,,,-99.99,open2300 version1.11,2013-09-12 03:30:00,
2013-09-11 23:35:00,68.9,65.5,29.94,WSW,247,0.0,0.0,89,0.00,,,-99.99,open2300 version1.11,2013-09-12 03:35:00,
2013-09-11 23:40:00,68.7,65.3,29.93,WSW,247,0.0,0.0,89,0.00,,,-99.99,open2300 version1.11,2013-09-12 03:40:00,
2013-09-11 23:45:00,68.7,65.3,29.93,WSW,247,0.0,0.0,89,0.00,,,-99.99,open2300 version1.11,2013-09-12 03:45:00,
2013-09-11 23:50:00,68.7,65.3,29.93,WSW,247,0.0,0.0,89,0.00,,,-99.99,open2300 version1.11,2013-09-12 03:50:00,
2013-09-11 23:55:00,68.5,65.1,29.92,WSW,247,0.0,0.0,89,0.00,,,-99.99,open2300 version1.11,2013-09-12 03:55:00,